Weather History for Mount Pleasant, SC

Change the Weather History Date:

Sunday, November 4, 2012

  Actual Average (KCHS) Record (KCHS)
Temperature  
Mean Temperature 66 °F 62 °F  
Max Temperature 80 °F 73 °F 86 °F (1972)
Min Temperature 51 °F 51 °F 27 °F (1966)
Degree Days  
Heating Degree Days 0 5  
Month to date heating degree days 19  
Since 1 July heating degree days 88  
Cooling Degree Days 0 2  
Month to date cooling degree days 8  
Year to date cooling degree days 2272  
Growing Degree Days 16 (Base 50)    
Moisture  
Dew Point 59 °F    
Average Humidity 82    
Maximum Humidity 100    
Minimum Humidity 45    
Precipitation  
Precipitation 0.17 in 0.08 in 0.95 in (1987)
Month to date precipitation 0.33  
Year to date precipitation 45.82  
Sea Level Pressure  
Sea Level Pressure 29.97 in    
Wind  
Wind Speed 5 mph (SSW)    
Max Wind Speed 16 mph    
Max Gust Speed 31 mph    
Visibility 9 miles    
Events Rain , Thunderstorm    
T = Trace of Precipitation, MM = Missing Value Source: NWS Daily Summary

Daily Weather History Graph

Daily Weather History Graph

Search for Another Location

Airport:

Trip Planner

Search our weather history database for the weather conditions in past years. The results will help you decide how hot, cold, wet, or windy it might be!

Date:

Astronomy

Nov. 04, 2012 Rise Set
Actual Time 6:40 AM EST 5:24 PM EST
Civil Twilight 6:14 AM EST 5:50 PM EST
Nautical Twilight 5:45 AM EST 6:19 PM EST
Astronomical Twilight 5:16 AM EST 6:48 PM EST
Moon 10:03 PM EST (11/4) 11:19 AM EST (11/4)
Length of Visible Light 11h 36m
Length of Day
10h 44m
Waning Gibbous, 72% of the Moon is Illuminated
Nov 4
Waning Gibbous
Nov 6
Last Quarter
Nov 13
New
Nov 20
First Quarter
Nov 28
Full

Hourly Weather History & Observations

Time (EST) Temp. Heat Index Dew Point Humidity Pressure Visibility Wind Dir Wind Speed Gust Speed Precip Events Conditions
12:15 AM 51.8 °F - 48.2 °F 88% 30.05 in 10.0 mi Calm Calm - N/A   Clear
12:35 AM 51.8 °F - 48.2 °F 88% 30.04 in 10.0 mi South 3.5 mph - N/A   Clear
12:55 AM 51.8 °F - 50.0 °F 94% 30.04 in 10.0 mi South 3.5 mph - N/A   Clear
1:15 AM 51.8 °F - 50.0 °F 94% 30.04 in 6.0 mi Calm Calm - N/A   Clear
1:35 AM 51.8 °F - 50.0 °F 94% 30.03 in 9.0 mi South 3.5 mph - N/A   Clear
1:55 AM 51.8 °F - 51.8 °F 100% 30.03 in 10.0 mi South 3.5 mph - N/A   Clear
1:15 AM 51.8 °F - 51.8 °F 100% 30.03 in 8.0 mi South 3.5 mph - N/A   Clear
1:35 AM 51.8 °F - 51.8 °F 100% 30.03 in 10.0 mi SSW 3.5 mph - N/A   Clear
1:55 AM 53.6 °F - 51.8 °F 94% 30.02 in 10.0 mi Calm Calm - N/A   Clear
2:15 AM 51.8 °F - 51.8 °F 100% 30.02 in 10.0 mi South 4.6 mph - N/A   Clear
2:35 AM 53.6 °F - 53.6 °F 100% 30.02 in 10.0 mi SSW 4.6 mph - N/A   Clear
2:55 AM 57.2 °F - 57.2 °F 100% 30.02 in 10.0 mi SSW 5.8 mph - N/A   Clear
3:15 AM 60.8 °F - 57.2 °F 88% 30.01 in 10.0 mi SSW 5.8 mph - N/A   Clear
3:35 AM 60.8 °F - 59.0 °F 94% 30.01 in 10.0 mi SSW 6.9 mph - N/A   Clear
3:55 AM 62.6 °F - 60.8 °F 94% 30.01 in 10.0 mi SSW 6.9 mph - N/A   Clear
4:15 AM 64.4 °F - 60.8 °F 88% 30.00 in 10.0 mi SSW 9.2 mph - N/A   Clear
4:35 AM 64.4 °F - 60.8 °F 88% 30.01 in 10.0 mi SSW 9.2 mph - N/A   Clear
4:55 AM 64.4 °F - 60.8 °F 88% 30.01 in 10.0 mi SW 9.2 mph - N/A   Clear
5:15 AM 64.4 °F - 60.8 °F 88% 30.01 in 10.0 mi SSW 9.2 mph - N/A   Clear
5:35 AM 64.4 °F - 60.8 °F 88% 30.00 in 10.0 mi SSW 8.1 mph - N/A   Clear
5:55 AM 64.4 °F - 60.8 °F 88% 30.00 in 10.0 mi SW 6.9 mph - N/A   Clear
6:15 AM 64.4 °F - 60.8 °F 88% 30.00 in 10.0 mi SW 5.8 mph - N/A   Clear
6:35 AM 64.4 °F - 60.8 °F 88% 30.01 in 10.0 mi SW 5.8 mph - N/A   Clear
6:55 AM 62.6 °F - 60.8 °F 94% 30.01 in 8.0 mi SW 5.8 mph - N/A   Clear
7:15 AM 62.6 °F - 60.8 °F 94% 30.01 in 8.0 mi SW 4.6 mph - N/A   Clear
7:55 AM 64.4 °F - 60.8 °F 88% 30.01 in 9.0 mi WSW 6.9 mph - N/A   Clear
8:15 AM 64.4 °F - 60.8 °F 88% 30.02 in 9.0 mi WSW 8.1 mph - N/A   Clear
8:35 AM 66.2 °F - 60.8 °F 83% 30.02 in 9.0 mi WSW 6.9 mph - N/A   Clear
8:55 AM 68.0 °F - 60.8 °F 78% 30.01 in 10.0 mi WSW 8.1 mph - N/A   Clear
9:15 AM 69.8 °F - 60.8 °F 73% 30.01 in 10.0 mi SW 5.8 mph - N/A   Clear
9:35 AM 71.6 °F - 60.8 °F 69% 30.00 in 10.0 mi SW 9.2 mph - N/A   Clear
9:55 AM 71.6 °F - 60.8 °F 69% 30.00 in 10.0 mi WSW 8.1 mph - N/A   Clear
10:15 AM 73.4 °F - 60.8 °F 65% 30.00 in 10.0 mi West 4.6 mph - N/A   Clear
10:55 AM 75.2 °F - 60.8 °F 61% 29.99 in 10.0 mi WSW 9.2 mph - N/A   Clear
11:15 AM 77.0 °F - 60.8 °F 57% 29.99 in 10.0 mi WSW 6.9 mph - N/A   Clear
11:55 AM 78.8 °F - 59.0 °F 51% 29.97 in 10.0 mi West 6.9 mph - N/A   Clear
12:15 PM 80.6 °F 81.1 °F 59.0 °F 48% 29.96 in 10.0 mi WSW 8.1 mph - N/A   Clear
12:55 PM 80.6 °F 80.8 °F 57.2 °F 45% 29.94 in 10.0 mi SW 8.1 mph - N/A   Clear
1:15 PM 80.6 °F 80.8 °F 57.2 °F 45% 29.94 in 10.0 mi WSW 8.1 mph - N/A   Clear
1:55 PM 80.6 °F 81.8 °F 62.6 °F 54% 29.92 in 10.0 mi South 9.2 mph - N/A   Clear
2:15 PM 80.6 °F 81.8 °F 62.6 °F 54% 29.92 in 10.0 mi South 9.2 mph - N/A   Clear
2:35 PM 78.8 °F - 62.6 °F 57% 29.92 in 8.0 mi South 9.2 mph - N/A   Clear
2:55 PM 78.8 °F - 62.6 °F 57% 29.92 in 9.0 mi South 11.5 mph - N/A   Clear
3:15 PM 77.0 °F - 62.6 °F 61% 29.92 in 9.0 mi South 8.1 mph - N/A   Clear
3:35 PM 77.0 °F - 62.6 °F 61% 29.91 in 9.0 mi SSW 11.5 mph - N/A   Clear
3:55 PM 75.2 °F - 62.6 °F 65% 29.91 in 10.0 mi South 10.4 mph - N/A   Clear
4:15 PM 73.4 °F - 62.6 °F 69% 29.91 in 10.0 mi SSW 9.2 mph - N/A   Clear
4:35 PM 71.6 °F - 62.6 °F 73% 29.91 in 10.0 mi SSW 10.4 mph - N/A   Clear
4:55 PM 71.6 °F - 62.6 °F 73% 29.91 in 9.0 mi SSW 8.1 mph - N/A   Clear
5:15 PM 71.6 °F - 62.6 °F 73% 29.90 in 9.0 mi SSW 8.1 mph - N/A   Clear
5:35 PM 69.8 °F - 64.4 °F 83% 29.91 in 8.0 mi SW 4.6 mph - N/A Thunderstorm Clear
5:55 PM 69.8 °F - 64.4 °F 83% 29.91 in 10.0 mi Calm Calm - N/A   Clear
6:15 PM 68.0 °F - 62.6 °F 83% 29.91 in 10.0 mi Calm Calm - N/A   Clear
6:35 PM 69.8 °F - 64.4 °F 83% 29.92 in 10.0 mi SW 9.2 mph - N/A Thunderstorm Clear
6:55 PM 64.4 °F - 59.0 °F 83% 29.95 in 2.5 mi NW 15.0 mph 31.1 mph 0.13 in Rain , Thunderstorm Heavy Thunderstorms and Rain
7:15 PM 62.6 °F - 60.8 °F 94% 29.94 in 6.0 mi South 3.5 mph - 0.03 in Thunderstorm Light Drizzle
7:35 PM 62.6 °F - 60.8 °F 94% 29.91 in 3.0 mi Calm Calm - 0.03 in Thunderstorm Scattered Clouds
7:55 PM 62.6 °F - 60.8 °F 94% 29.95 in 7.0 mi SSW 16.1 mph - 0.03 in Rain Light Rain
8:15 PM 62.6 °F - 60.8 °F 94% 29.95 in 10.0 mi SSW 6.9 mph - 0.01 in Thunderstorm Mostly Cloudy
8:35 PM 62.6 °F - 60.8 °F 94% 29.92 in 2.5 mi Calm Calm - 0.01 in   Light Drizzle
8:55 PM 60.8 °F - 60.8 °F 100% 29.91 in 3.0 mi SSE 5.8 mph - 0.01 in   Scattered Clouds
9:15 PM 62.6 °F - 60.8 °F 94% 29.91 in 7.0 mi SE 3.5 mph - N/A   Mostly Cloudy
9:35 PM 62.6 °F - 60.8 °F 94% 29.93 in 8.0 mi North 4.6 mph - N/A   Mostly Cloudy
9:55 PM 62.6 °F - 60.8 °F 94% 29.93 in 9.0 mi Calm Calm - N/A   Mostly Cloudy
10:15 PM 60.8 °F - 60.8 °F 100% 29.92 in 5.0 mi Calm Calm - N/A   Mostly Cloudy
10:35 PM 60.8 °F - 60.8 °F 100% 29.92 in 5.0 mi South 5.8 mph - N/A   Scattered Clouds
10:55 PM 60.8 °F - 60.8 °F 100% 29.92 in 4.0 mi Calm Calm - N/A   Partly Cloudy